Probability
0 0 0 0 0 0 0 0 1 2 4 6 8 6 4 2 1 1 2 2 3 3 3 2 1 0 0 0 0 0 0 0 0 0 0 0 0 0 0 0 0 0 0
0 0 0 0 0 0 0 0 0 1 3 6 7 6 4 2 1 0 1 1 2 3 3 3 1 0 0 0 0 0 0 0 0 0 0 0 0 0 0 0 0 0 0
0 0 0 0 0 0 0 0 0 0 1 3 5 5 4 3 2 1 0 0 1 3 3 3 2 0 0 0 0 0 0 0 0 0 0 0 0 0 0 0 0 0 0
0 0 0 0 0 0 0 0 0 0 0 2 3 3 3 3 3 3 2 1 1 3 4 3 1 0 0 0 0 0 0 0 0 0 0 0 0 0 0 0 0 0 0
0 0 0 0 0 0 0 0 0 0 0 1 1 1 1 2 3 3 3 2 3 3 4 2 1 0 0 0 0 0 0 0 0 0 0 0 0 0 0 0 0 0 0
0 0 0 0 0 0 0 0 0 0 0 0 0 0 0 1 3 3 3 3 3 3 3 1 0 0 0 0 0 0 0 0 0 0 0 0 0 0 0 0 0 0 0
0 0 0 0 0 0 0 0 0 0 0 0 0 0 1 2 3 3 3 3 3 2 1 0 0 0 0 0 0 0 0 0 0 0 0 0 0 0 0 0 0 0 0
0 0 0 0 0 0 0 0 0 0 0 0 0 1 4 4 4 3 3 3 2 1 0 0 0 0 0 0 0 0 0 0 0 0 0 0 0 0 0 0 0 0 0
0 0 0 0 0 0 0 0 0 0 1 1 2 3 5 6 4 3 3 2 1 0 0 0 1 0 0 0 0 0 0 0 0 0 0 0 0 0 0 0 0 0 0
0 0 0 0 0 0 0 0 0 1 2 3 3 4 6 6 5 3 1 1 0 0 0 0 0 0 0 0 0 0 0 0 0 0 0 0 0 0 0 0 0 0 0
0 0 0 0 0 0 0 0 1 2 3 4 5 5 5 5 3 2 0 0 0 0 0 0 0 0 0 0 0 0 0 0 0 0 0 0 0 0 0 0 0 0 0
0 0 0 0 0 0 0 1 1 3 3 4 5 4 4 3 2 1 0 0 0 0 0 0 0 0 0 0 0 0 0 0 0 0 0 0 0 0 0 0 0 0 0
0 0 0 0 0 0 1 2 3 3 3 3 4 3 3 3 2 1 0 0 0 0 0 0 0 0 0 0 0 0 0 0 0 0 0 0 0 0 0 0 0 0 0
0 0 0 0 0 0 2 3 3 3 3 3 3 3 2 2 1 0 0 0 0 0 0 0 0 0 0 0 0 0 0 0 0 0 0 0 0 0 0 0 0 0 0
0 0 0 0 0 0 1 2 2 2 2 2 2 1 1 1 0 0 0 0 0 0 0 0 0 0 0 0 0 0 0 0 0 0 0 0 0 0 0 0 0 0 0
0 0 0 0 0 0 0 1 1 1 1 1 1 0 0 0 0 0 0 0 0 0 0 0 0 0 0 0 0 0 0 0 0 0 0 0 0 0 0 0 0 0 0
0 0 0 0 0 0 0 0 0 0 0 0 0 0 0 0 0 0 0 0 0 0 0 0 0 0 0 0 0 0 0 0 0 0 0 0 0 0 0 0 0 0 0
0 0 0 0 0 0 0 0 0 0 0 0 0 0 0 0 0 0 0 0 0 0 0 0 0 0 0 0 0 0 0 0 0 0 0 0 0 0 0 0 0 0 0
0 0 0 0 0 0 0 0 0 0 0 0 0 0 0 0 0 0 0 0 0 0 0 0 0 0 0 0 0 0 0 0 0 0 0 0 0 0 0 0 0 0 0
0 0 0 0 0 0 0 0 0 0 0 0 0 0 0 0 0 0 0 0 0 0 0 0 0 0 0 0 0 0 0 0 0 0 0 0 0 0 0 0 0 0 0
0 0 0 0 0 0 0 0 0 0 0 0 0 0 0 0 0 0 0 0 0 0 0 0 0 0 0 0 0 0 0 0 0 0 0 0 0 0 0 0 0 0 0
0 0 0 0 0 0 0 0 0 0 0 0 0 0 0 0 0 0 0 0 0 0 0 0 0 0 0 0 0 0 0 0 0 0 0 0 0 0 0 0 0 0 0
0 0 0 0 0 0 0 0 0 0 0 0 0 0 0 0 0 0 0 0 0 0 0 0 0 0 0 0 0 0 0 0 0 0 0 0 0 0 0 0 0 0 0
0 0 0 0 0 0 0 0 0 0 0 0 0 0 0 0 0 0 0 0 0 0 0 0 0 0 0 0 0 0 0 0 0 0 0 0 0 0 0 0 0 0 0
0 0 0 0 0 0 0 0 0 0 0 0 0 0 0 0 0 0 0 0 0 0 0 0 0 0 0 0 0 0 0 0 0 0 0 0 0 0 0 0 0 0 0
0 0 0 0 0 0 0 0 0 0 0 0 0 0 0 0 0 0 0 0 0 0 0 0 0 0 0 0 0 0 0 0 0 0 0 0 0 0 0 0 0 0 0
Wind_Speed
6 6 6 5 5 5 6 6 6 6 5 4 4 4 3 3 2 2 3 3 3 3 3 2 1 1 1 1 1 1 1 1 1 2 3 3 3 2 2 2 2 2 2
5 6 6 5 5 5 5 6 6 6 5 5 4 3 3 3 3 2 2 3 3 3 3 2 2 1 1 1 0 1 0 1 1 1 2 3 3 2 2 1 2 3 2
7 6 6 6 5 5 5 5 5 5 5 6 4 4 3 2 2 2 2 2 3 3 3 3 2 2 2 1 1 1 1 0 1 1 0 1 2 3 2 3 2 3 3
5 5 5 5 5 5 5 5 5 5 6 6 6 6 5 4 3 3 2 2 3 3 3 3 2 2 1 1 1 0 0 1 1 1 1 1 2 2 4 3 2 3 4
5 6 5 5 4 5 5 5 5 5 5 6 6 6 4 4 3 3 3 3 2 2 2 3 2 2 1 1 1 0 0 1 1 1 2 2 2 2 3 5 4 3 3
6 6 5 5 4 4 5 5 5 5 5 6 6 6 6 5 5 4 4 3 2 2 2 2 2 2 1 1 1 1 1 1 1 1 1 1 2 2 3 5 6 5 4
6 6 6 5 5 5 5 5 6 5 5 5 5 6 6 6 6 5 4 4 3 2 2 2 2 2 1 1 1 1 1 1 1 1 1 2 2 2 3 4 6 6 5
5 6 6 5 6 6 6 6 6 5 5 5 5 5 5 4 4 4 4 3 3 3 3 3 3 2 2 1 1 0 1 1 1 2 2 2 2 2 3 3 5 7 6
5 5 5 5 6 6 6 7 6 5 5 5 4 4 4 4 4 4 3 2 2 3 3 3 3 2 2 1 1 1 1 1 1 2 2 2 2 2 3 3 3 5 7
4 5 4 4 4 5 5 6 6 5 5 4 4 4 3 4 4 4 3 3 3 3 3 3 2 2 1 1 1 1 1 1 2 2 2 3 3 2 2 3 3 4 6
4 4 4 4 4 4 4 5 5 5 5 4 4 4 3 3 4 3 3 3 3 3 3 2 2 2 1 1 1 1 1 2 3 3 3 4 4 3 3 3 3 4 4
5 5 4 4 4 4 4 4 4 5 4 4 4 4 4 4 4 4 3 3 3 3 2 2 2 1 0 0 1 1 2 2 3 3 3 4 3 4 3 3 4 4 5
5 5 4 4 4 4 4 4 4 4 4 4 4 4 4 4 4 4 3 3 3 2 2 2 2 1 0 0 1 1 2 2 2 3 3 4 4 5 4 4 5 4 5
4 4 4 4 4 4 4 4 4 4 4 4 4 4 3 4 4 4 3 3 2 2 2 2 1 1 0 0 1 1 2 2 2 3 4 4 4 5 5 5 5 5 5
4 4 4 4 4 4 4 4 4 3 4 4 4 4 4 4 3 3 3 2 2 2 1 1 1 0 0 0 1 1 2 2 3 3 4 5 6 8 7 6 5 5 5
3 4 4 4 4 4 4 4 4 4 4 5 4 4 4 4 3 3 3 2 2 1 1 1 0 0 1 2 4 4 2 3 3 4 5 5 6 8 10 11 11 10 7
3 3 3 3 3 4 4 4 4 4 5 4 4 3 4 4 3 3 2 2 1 1 1 0 0 0 1 3 5 6 4 3 4 5 5 5 6 8 6 9 11 11 13
2 2 2 2 3 3 4 4 5 5 4 4 3 3 3 3 3 2 2 1 1 0 0 0 0 1 2 4 6 7 4 3 4 4 5 5 6 7 8 7 7 7 7
3 3 2 2 3 3 4 4 4 4 4 4 3 3 3 3 2 2 1 1 0 0 0 1 1 2 3 4 7 7 3 3 4 5 5 6 6 10 13 8 8 8 7
3 3 3 3 3 3 4 4 4 3 3 3 3 3 3 3 2 2 1 1 0 0 1 1 1 2 2 4 7 7 3 3 4 4 5 8 9 12 13 7 7 8 8
3 3 3 2 2 3 4 4 3 2 2 2 3 2 2 2 2 1 1 1 0 0 1 2 2 2 3 4 6 7 3 3 4 4 4 5 12 13 14 11 7 10 10
3 3 3 2 2 3 3 3 2 2 2 3 2 2 2 1 1 2 1 1 0 0 1 2 2 2 2 4 6 8 8 7 5 5 5 6 12 14 14 10 11 13 11
3 3 3 3 3 3 3 3 2 2 3 3 2 2 2 1 1 1 1 0 0 1 1 2 2 3 2 3 7 8 9 10 6 5 9 12 13 13 9 10 13 10 5
3 3 3 3 3 3 3 3 2 2 3 3 2 2 2 1 1 1 0 0 0 1 2 2 3 3 3 3 3 3 5 7 6 5 8 11 11 9 9 9 7 4 4
3 3 3 3 3 3 3 3 2 2 3 3 2 2 1 1 1 1 1 1 1 2 3 2 2 3 4 5 8 6 5 4 5 6 4 4 4 4 4 4 4 4 4
3 3 3 3 3 3 3 3 2 2 2 2 1 1 1 1 0 0 2 3 3 4 5 5 5 5 7 9 10 10 10 10 9 6 3 4 4 4 4 5 4 4 4
Wind_Direction
184 172 168 160 158 163 164 162 162 165 158 156 159 159 161 156 142 138 141 141 138 135 131 131 130 119 119 121 84 48 353 343 351 343 318 302 281 261 257 268 283 283 272
180 168 163 162 168 168 162 158 158 161 159 159 161 158 151 150 144 135 133 137 136 137 138 138 147 145 125 108 90 75 38 331 8 12 327 317 316 303 296 298 289 289 283
183 174 171 170 167 169 166 159 159 158 158 152 140 133 118 113 117 145 158 149 139 143 147 152 152 152 146 162 193 152 127 283 315 24 105 300 277 304 289 284 297 309 305
176 168 168 167 167 167 157 155 156 154 154 152 154 158 163 168 178 169 160 145 133 136 146 147 148 149 147 149 189 159 164 151 262 302 280 251 276 296 301 296 298 306 300
176 170 168 166 162 153 149 151 148 148 151 157 162 164 165 165 155 148 148 151 147 145 144 143 142 138 141 145 142 112 201 195 211 248 283 295 306 286 278 290 301 300 287
171 165 158 154 150 142 144 149 151 154 155 159 162 164 165 162 158 162 163 164 160 155 154 148 144 138 141 161 184 198 209 230 244 252 257 265 276 284 279 284 296 294 289
165 163 159 158 156 154 156 157 156 160 161 161 165 166 166 165 168 170 168 164 163 162 170 152 146 147 150 167 188 198 234 244 241 245 255 259 261 269 272 279 288 290 289
161 163 161 161 160 162 161 159 159 162 164 164 166 161 161 163 166 166 163 164 163 168 167 159 151 162 161 163 162 183 235 260 248 258 259 262 264 261 260 265 282 290 288
157 153 152 155 160 163 163 160 159 158 158 156 153 151 153 153 156 152 146 147 152 157 155 153 150 150 145 152 167 208 244 268 261 258 262 266 269 268 268 267 263 270 285
148 145 145 147 150 153 151 149 149 150 147 145 151 146 148 148 142 134 140 145 143 139 138 138 148 146 144 167 179 216 232 253 270 262 262 266 267 267 265 264 266 263 268
147 143 141 135 134 129 129 139 143 140 138 140 142 136 133 125 119 125 132 132 124 121 129 136 132 127 146 189 202 243 255 258 272 276 274 273 272 270 269 267 267 267 266
138 133 131 125 125 125 126 128 132 133 136 134 127 125 123 124 124 119 119 115 115 113 121 126 109 95 63 273 241 257 271 263 269 277 282 283 288 285 280 276 272 269 264
117 118 122 126 128 128 124 125 124 126 126 124 122 121 124 125 121 115 112 111 113 113 107 102 109 111 119 328 303 292 293 291 290 291 285 285 287 286 283 280 276 274 280
112 114 124 131 128 124 119 118 117 119 122 122 124 124 123 118 115 111 109 112 115 112 108 109 115 129 225 234 296 302 300 300 297 292 285 282 277 277 280 280 277 279 282
114 119 123 123 122 119 118 118 118 115 119 119 118 121 115 109 109 110 111 107 102 102 106 110 109 153 236 247 289 297 293 287 291 296 292 288 286 285 286 285 281 279 277
124 121 118 124 128 130 129 123 122 123 114 115 119 117 116 116 116 119 118 112 107 106 106 120 122 350 314 309 308 308 296 295 295 297 297 295 292 294 296 296 293 285 278
124 126 132 138 135 134 133 133 128 118 117 121 123 121 122 120 122 118 107 111 111 97 79 58 91 301 290 303 311 316 312 298 294 293 293 295 297 302 294 294 293 288 285
72 92 105 112 114 113 115 114 114 117 120 122 121 119 121 125 122 117 120 108 92 82 82 317 318 302 298 312 314 317 313 295 291 290 291 291 293 293 294 289 286 277 278
66 69 74 93 105 111 115 115 114 119 121 126 129 131 133 133 132 137 139 118 88 19 329 324 320 308 301 307 309 310 299 294 296 295 295 296 290 297 304 300 293 288 285
54 57 59 72 92 104 111 112 118 121 129 134 130 126 134 143 146 148 135 88 78 347 351 326 308 294 293 301 310 313 300 296 298 297 295 298 298 301 305 301 296 292 289
53 60 67 77 89 99 108 113 112 124 124 113 118 123 126 132 137 123 113 111 78 11 320 302 300 294 295 305 311 315 313 299 299 300 299 298 305 306 307 307 294 291 299
53 57 66 70 76 87 103 110 114 111 102 104 109 110 108 104 97 103 90 95 78 305 294 299 303 301 300 308 309 312 313 313 303 298 298 300 309 310 309 308 302 305 309
57 58 73 72 72 81 97 114 113 108 108 104 104 105 96 87 99 115 112 85 19 314 299 297 299 306 311 311 316 316 315 312 309 299 303 307 310 312 310 306 308 311 304
53 59 69 69 60 63 72 87 94 105 114 113 105 101 95 74 50 44 63 199 277 284 292 295 298 304 305 304 304 302 304 305 303 302 303 309 310 309 304 305 307 303 292
56 60 70 71 63 63 66 65 71 95 103 101 97 93 94 93 55 13 336 301 263 259 280 274 280 292 295 297 308 312 306 306 300 309 305 304 308 311 314 315 310 306 308
63 68 67 66 56 57 62 54 45 66 93 94 92 99 100 79 73 25 352 350 330 322 316 312 308 302 301 308 312 313 314 315 315 318 308 305 305 306 309 312 312 311 310